Regional Weather Roundup
Issued by NWS

Home | Current Version | Previous Version | Graphics & Text | Print | Product List | Glossary On
Versions: 1 2 3 4 5 6 7 8 9 10 11 12 13 14 15 16 17 18 19 20 21 22 23 24 25 26 27 28 29 30 31 32 33 34 35 36 37 38 39 40 41 42 43 44 45 46 47 48 49 50
000
ASUS45 KTFX 290019
RWRMT
MONTANA HOURLY WEATHER ROUNDUP
NATIONAL WEATHER SERVICE GREAT FALLS MT
619 PM MDT SAT MAR 28 2015

NOTE: "FAIR" INDICATES FEW OR NO CLOUDS BELOW 12000 FEET WITH NO
SIGNIFICANT WEATHER AND/OR OBSTRUCTIONS TO VISIBILITY.

* THESE STATIONS ARE NOT UNDER NWS QUALITY CONTROL. THEY DO NOT
   REPORT WEATHER SUCH AS PRECIPITATION OR FOG.

MTZ001>007-043-290100-
WEST OF THE DIVIDE
CITY           SKY/WX    TMP DP  RH WIND       PRES   REMARKS
KALISPELL      CLOUDY    52  34  50 W13       30.10R
MISSOULA       CLOUDY    50  30  46 W14G26    30.21R
BUTTE          MOCLDY    45  18  34 NW26G38   30.12R
MULLAN PASS    CLOUDY    32  30  92 VRB3      30.20R
* ESSEX        N/A       38  35  89 SE2        N/A
* EUREKA APT   PTCLDY    54  34  47 SW5        N/A
* HAMILTON APT MOCLDY    46  32  58 SE7       30.24R
* LIBBY APT    PTCLDY    55  34  45 W5        30.15R
* LINCOLN      N/A       44  29  56 W11G28     N/A
* LOOKOUT PASS N/A       41  33  73 NE3G16     N/A
* POLSON       N/A       47  33  58 NW5G12     N/A
* RONAN APT    MOCLDY    50  34  54 SW10G16    N/A
* SEELEY LAKE  N/A       45  30  56 NW6G21     N/A
* THOMP F APT  PTCLDY    52  14  22 N9G24      N/A
$$

MTZ008-052>055-290100-
SOUTHWEST MONTANA
CITY           SKY/WX    TMP DP  RH WIND       PRES   REMARKS
BOZEMAN        CLOUDY    52  16  24 W29G38    30.05R
DILLON         PTCLDY    50  18  28 W16G26    30.13R
* W YELLOWSTON PTCLDY    49  15  26 NW6G18     N/A
* THREE FORKS  PTCLDY    54  18  24 W15G26     N/A
* TWIN BRIDGES PTCLDY    54  12  19 W18G28     N/A
* BOULDER HILL N/A       44  18  35 S5G16      N/A
* HOMESTAKE PS N/A       41  16  36 W17G30     N/A
* MONIDA PASS  N/A       45  14  28 NW28G44    N/A
* RAYNOLDS PAS N/A       48  46  93 N23G30     N/A
* WHITEHALL    N/A       54  16  22 W19G37     N/A
* WISE RIVER   N/A       46  20  36 W20G40     N/A
$$

MTZ009>010-012-014-046-048-049-054-290100-
EAST SLOPES AND CENTRAL MONTANA
CITY           SKY/WX    TMP DP  RH WIND       PRES   REMARKS
CUT BANK       CLOUDY    41  36  82 NW26G39   29.94R
GREAT FALLS    CLOUDY    48  25  41 W28G48    29.94R
HELENA         MOCLDY    52  25  35 W22G43    30.02R
MALMSTROM AFB  MOCLDY    50  23  35 W30G46    29.95R
* CONRAD       MOCLDY    52  28  40 W29G48     N/A
* DEARBORN     N/A       50  26  39 SE11G25    N/A
* EAST GLACIER N/A       41  34  76 SW11G19    N/A
* MONARCH      N/A       44  17  34 W34G46     N/A
* PENDROY      N/A       49  26  41 W32G48     N/A
* ROGERS PASS  N/A       39  26  60 SE19G40    N/A   WCI  29
* SAINT MARY   N/A       40  36  86 S11G26     N/A   WCI  33
* WHITE SULPH  N/A       48  19  32 W10G34     N/A
$$

MTZ011-013-016-021-035-040-045-047-050-051-290100-
NORTH CENTRAL MONTANA
CITY           SKY/WX    TMP DP  RH WIND       PRES   REMARKS
HAVRE          LGT RAIN  45  37  74 NW36G51   29.81R
LEWISTOWN      CLOUDY    52  19  27 W35G54    29.85R
* N BAR RANCH  MOCLDY    50  16  26 NW31G45   29.84R
* CHINOOK      CLOUDY    46  39  77 W30G40    29.76R
* FORT BENTON  CLOUDY    50  30  46 W29G40    29.91R
* MALTA APT    MOCLDY    55  28  35 W35G47     N/A
* CHESTER      N/A       41  36  82 NW31G44    N/A
* DENTON       N/A       53  25  34 W39G50     N/A
* GEYSER       N/A       49  21  33 W40G56     N/A
* JUDITH GAP   N/A       50  20  31 W39G48     N/A
* LOMA         N/A       50  31  48 W24G36     N/A
$$

MTZ017>020-022>027-061-062-290100-
NORTHEAST MONTANA
CITY           SKY/WX    TMP DP  RH WIND       PRES   REMARKS
GLASGOW        CLOUDY    54  34  47 W25G33    29.66R
GLENDIVE       CLOUDY    54  39  57 W28G38    29.69R
JORDAN         PTCLDY    55  36  49 NW15G33   29.73R
SIDNEY         CLOUDY    54  43  67 W32G39    29.59R
WOLF POINT     LGT RAIN  54  45  72 W14G24    29.64S
* BEAVER HILL  N/A       51  41  69 W45G63     N/A
* CIRCLE       N/A       52  44  74 SW15       N/A
* LINDSAY DVD  N/A       47  43  86 W25G37     N/A
* NAVAJO       N/A       52  44  74 W30G37     N/A
* POPLAR APT   CLOUDY    52  46  80 W16G21    29.63R
* SACO         N/A       57  31  37 W27G45     N/A
$$

MTZ028>042-056>058-290100-
SOUTHCENTRAL AND SOUTHEAST MONTANA
CITY           SKY/WX    TMP DP  RH WIND       PRES   REMARKS
BAKER          LGT RAIN  54  46  74 NW30G51   29.69R
BILLINGS       PTCLDY    61  16  17 W32G43    29.87R
LIVINGSTON     CLOUDY    54  16  22 W32G44    29.98R
MILES CITY     MOCLDY    59  36  42 NW26G36   29.73R
* BIG TIMBER A PTCLDY    52  19  27 W30G51    29.94R
* FORSYTH APT  MOCLDY    63  19  18 W28G44    29.75R
* LAUREL APT   CLEAR     61  12  14 W37G45     N/A
* ROUNDUP APT  PTCLDY    57  14  18 W37G53     N/A
* ALZADA       N/A       64  39  40 W27G34     N/A
* HYSHAM       N/A       58  18  21 NW38G46    N/A
* LAME DEER    N/A       55  28  35 NW20G29    N/A
* REED POINT   N/A       56  20  24 W37G49     N/A
* ROSCOE HILL  N/A       52   8  17 NW7G21     N/A
$$

REGIONAL REPORTS...DAKOTAS
CITY           SKY/WX    TMP DP  RH WIND       PRES   REMARKS
WILLISTON      CLOUDY    61  45  56 W33G46    29.51R
DICKINSON      LGT RAIN  57  46  67 NW32G43   29.54R
BEACH          LGT RAIN  54  48  80 NW36G51   29.66R
CROSBY         FAIR      57  50  78 NW17G25   29.49R
TIOGA          MOCLDY    55  50  83 NW10      29.52R
WATFORD CITY   MOCLDY    63  45  52 W25G38    29.51R
BISMARCK       CLOUDY    63  36  37 S18G29    29.51F
GRAND FORKS    CLOUDY    48  32  54 S24G37    29.68F
FARGO          MOCLDY    52  28  40 S24G40    29.76F
BUFFALO SD     CLOUDY    70  37  30 NW49G72   29.53R
RAPID CITY     MOCLDY    82  21  10 W24G31    29.55F
$$

REGIONAL REPORTS...WYOMING/IDAHO/WASHINGTON
CITY           SKY/WX    TMP DP  RH WIND       PRES   REMARKS
GILLETTE       HAZE      61  34  36 N31G43    29.76R
SHERIDAN       HAZE      57  34  42 NW32G48   29.80R
CODY           CLOUDY    55  34  45 W13G22    29.90F
YELLOWSTONE LA PTCLDY    45  10  24 W16G30    30.07R
SALMON         PTCLDY    55  21  27 N15G23    30.16R
MULLAN PASS    CLOUDY    32  30  92 VRB3      30.20S
SAND POINT     CLOUDY    50  41  71 CALM      30.16R
SPOKANE        MOCLDY    55  34  45 SW25G32   30.20R
$$

REGIONAL REPORTS...ALBERTA
CITY           SKY/WX    TMP DP  RH WIND       PRES   REMARKS
CALGARY        MOCLDY    48  32  54 N16       29.90R
LETHBRIDGE     MOCLDY    48  41  77 W16G26    29.94R
MEDICINE HAT   CLOUDY    46  43  89 NW15G26   29.84R
EDMONTON       PTCLDY    46  36  68 NW17G28   29.87R
WATERTON GATE  N/A       45  30  56 SW21G30    N/A
CARDSTON       N/A       46  37  71 W13G20     N/A
MILK RIVER     N/A       41  39  93 NW22G30    N/A
$$

REGIONAL REPORTS...SASKATCHEWAN
CITY           SKY/WX    TMP DP  RH WIND       PRES   REMARKS
SWIFT CURRENT  LGT RAIN  41  39  93 NW24G35   29.63R
REGINA         LGT RAIN  48  48 100 NW17G23   29.53R
VAL MARIE      N/A       48  39  71 W33G44     N/A
ASSINIBOIA     N/A       50  46  86 NW15       N/A
CORONACH       N/A       54  43  67 W25G35     N/A

$$




USA.gov is the U.S. government's official web portal to all federal, state and local government web resources and services.